Погода в Новинском

Россия / Ярославская область     57°53′39″N   37°48′27″E
темп.,
°C
ветер,
м/с
пор.,
м/с
влажн.,
%
обл.,
%
осадки,
мм/ч
давл.,
гПа
погр.,
м
13 апреля, вт
вт1300:00+8юв41280100 0.0 1028404
03:00+6юв31092100 0.0 1027257
06:00+5юв399799 0.0 1026229
09:00+10ююв41082100 0.0 1024372
12:00+15ю51063100 0.0 1023742
15:00+18ююз4956100 0.0 10221141
18:00+16ю41062100 0.0 1021319
21:00+12ю31274100 0.0 1022247
14 апреля, ср
ср1400:00+10ю3127399 0.0 1021259
03:00+8ююв3118074 0.0 1021220
06:00+7ю311795 0.0 1020217
09:00+12ю4106212 0.0 1019371
12:00+16ю4850100 0.0 1019715
15:00+18ююз584591 0.0 10181541
18:00+16ю3754100 0.0 1017239
21:00+11юз2270100 0.0 101824
15 апреля, чт
чт1500:00+10св249077 0.0 1018104
03:00+8ссв489696 0.0 1019267
06:00+6ссв3996100 0.0 1020302
09:00+7ссв4890100 0.0 1020372
12:00+8ссв5885100 0.0 1021462
15:00+8ссв51080100 0.0 1022517
18:00+7св51278100 0.0 1022556
21:00+5св51286100 0.0 1023541
16 апреля, пт
пт1600:00+5св4128587 0.0 1024531
03:00+4св4117768 0.0 1024408
06:00+2св4117910 0.0 1025380
09:00+5св510605 0.0 1026535
12:00+8св58445 0.0 1026902
15:00+9св583737 0.0 10271119
18:00+8св484693 0.0 1027991
21:00+5св31162100 0.0 1029288
17 апреля, сб
сб1700:00+3св3116911 0.0 1030289
03:00+1св38785 0.0 1031184
06:000ссв310805 0.0 1033244
09:00+5св48631 0.0 1034589
12:00+8св57493 0.0 10341145
15:00+9св56380 0.0 10341315
18:00+8св46425 0.0 10341092
21:00+3св266230 0.0 1035121